Flag Weather past 2 weeks in Jørpeland, Norway

Now
50 °F

Light rain. Partly sunny.


Feels Like: 46 °F
Forecast: 36 / 40 °F
Wind: 10 mph from Southeast

Location: Stavanger / Sola

Current Time: Nov 23, 2014 at 11:15:58 AM

Latest Report: Nov 23, 2014 at 10:50 AM


Visibility: N/A

Pressure: 29.98 "Hg

Humidity: 71%

Dew point: 41 °F

Location of JørpelandLocation

Historic Weather in Jørpeland — Graph

°F

Jørpeland temperature yesterday

Maximum temperature yesterday: 46 °F (at 11:20 PM)
Minimum temperature yesterday: 30 °F (at 5:20 AM)
Average temperature yesterday: 42 °F

Past Weeks' High & Low Weather Summary

 TemperatureHumidityPressure
High55 °F (Nov 9, 5:50 AM)100% (Nov 11, 5:20 AM)30.48 "Hg (Nov 11, 5:20 AM)
Low30 °F (Nov 22, 5:20 AM)47% (Nov 12, 2:50 PM)29.45 "Hg (Nov 8, 9:20 AM)
Average48 °F70%29.97 "Hg
* Reported Nov 8 9:20 AM — Nov 23 9:50 AM, Jørpeland, Weather by CustomWeather, © 2014

Note: Actual official high and low records may vary slightly from our data, if they occured in-between our weather recording intervals... More about our weather records

Advertising

Jørpeland weather history for previous 24 hours

 ConditionsComfort  
Time TempWeatherWind HumidityBarometerVisibility
9:50 AM
Nov 23
48 °FPartly sunny.15 mph71%29.98 "HgN/A
9:20 AM48 °FPartly sunny.13 mph71%29.98 "HgN/A
8:50 AM48 °FPartly sunny.13 mph71%30.01 "HgN/A
8:20 AM48 °FPassing clouds.13 mph71%30.01 "HgN/A
7:50 AM46 °FPassing clouds.16 mph76%30.01 "HgN/A
7:20 AM46 °FPassing clouds.10 mph76%30.01 "HgN/A
6:50 AM45 °FLight rain. Passing clouds.9 mph87%30.01 "HgN/A
6:20 AM45 °FLight rain. Passing clouds.9 mph87%30.01 "HgN/A
5:50 AM45 °FLight rain. Passing clouds.13 mph81%30.01 "HgN/A
4:50 AM45 °FLight rain. Mostly cloudy.13 mph81%30.01 "HgN/A
3:50 AM45 °FLight rain. Passing clouds.9 mph81%30.04 "HgN/A
2:50 AM45 °FLight rain. Partly cloudy.12 mph81%30.04 "HgN/A
1:50 AM45 °FLight rain. Passing clouds.16 mph81%30.04 "HgN/A
12:50 AM46 °FPassing clouds.14 mph71%30.04 "HgN/A
11:50 PM
Nov 22
45 °FLight rain. Passing clouds.16 mph76%30.04 "HgN/A
11:20 PM46 °FLight rain. Passing clouds.18 mph71%30.07 "HgN/A
10:50 PM45 °FLight rain. Passing clouds.22 mph76%30.07 "HgN/A
10:20 PM45 °FPassing clouds.17 mph76%30.07 "HgN/A
9:50 PM45 °FPassing clouds.17 mph76%30.07 "HgN/A
9:20 PM45 °FPassing clouds.17 mph76%30.07 "HgN/A
8:50 PM45 °FPassing clouds.13 mph76%30.07 "HgN/A
8:20 PM45 °FPassing clouds.9 mph76%30.07 "HgN/A
7:50 PM45 °FPassing clouds.12 mph76%30.07 "HgN/A
7:20 PM45 °FPassing clouds.14 mph76%30.07 "HgN/A
6:50 PM45 °FLight rain. Passing clouds.10 mph71%30.09 "HgN/A
6:20 PM45 °FPassing clouds.9 mph71%30.09 "HgN/A
5:50 PM45 °FPartly cloudy.10 mph71%30.09 "HgN/A
5:20 PM45 °FPassing clouds.13 mph71%30.09 "HgN/A
4:50 PM45 °FPassing clouds.15 mph71%30.09 "HgN/A
4:20 PM45 °FPassing clouds.15 mph71%30.09 "HgN/A
3:50 PM45 °FDrizzle. Broken clouds.13 mph66%30.09 "HgN/A
3:20 PM45 °FBroken clouds.12 mph66%30.09 "HgN/A
2:50 PM45 °FBroken clouds.12 mph71%30.09 "HgN/A
2:20 PM45 °FBroken clouds.12 mph71%30.12 "HgN/A
1:50 PM45 °FPartly sunny.16 mph71%30.12 "HgN/A
1:20 PM45 °FBroken clouds.10 mph71%30.15 "HgN/A
12:50 PM45 °FPartly sunny.9 mph71%30.15 "HgN/A
12:20 PM45 °FScattered clouds.10 mph71%30.15 "HgN/A
11:50 AM43 °FScattered clouds.8 mph76%30.15 "HgN/A
11:20 AM43 °FScattered clouds.6 mph71%30.15 "HgN/A
Weather by CustomWeather, © 2014

See weather overviewHow to use our weather pages